sat.trackr.live / text

‹ back to catalog

STARLINK-3178

NORAD 51467 · 2022-010M

PAYLOAD ACTIVE UNKNOWN

§ Identity

Operator
Country
US
Launch date
2022-02-03
Launch site
AFETR
Launch vehicle
Mass (kg)
RCS (m²)

Purposes: comms

External: N2YO · Heavens-Above · Gunter

§ Orbital elements

Epoch: 2026-09-20T04:48:57.938112Z

Period
93.90 min
Inclination
53.1603°
Eccentricity
0.0001181
Mean motion
15.33529731 rev/d
Perigee alt
464.5 km
Apogee alt
466.1 km
Semi-major
6,843.4 km
B*
-7.2024e-5
RAAN
117.3841°
Arg perigee
86.1631°
Mean anomaly
273.9507°
Rev number
25,599

§ Raw data

STARLINK-31781 51467U 22010M   26263.20067058 -.00002739  00000+0 -72024-4 0  99962 51467  53.1603 117.3841 0001181  86.1631 273.9507 15.33529731255996

JSON: /api/v1/satellites/51467 · /tle

For live sub-satellite position, see the globe view (requires WebGL).

§ Visibility from observer

Set your observer location to see the next 7 days of passes ≥ 10°. The values pass through the URL so the page stays shareable.

No JS? Fill the form by hand. The geolocation button needs JavaScript.